PDT,Max TemperatureF,Mean TemperatureF,Min TemperatureF,Max Dew PointF,MeanDew PointF,Min DewpointF,Max Humidity, Mean Humidity, Min Humidity, Max Sea Level PressureIn, Mean Sea Level PressureIn, Min Sea Level PressureIn, Max VisibilityMiles, Mean VisibilityMiles, Min VisibilityMiles, Max Wind SpeedMPH, Mean Wind SpeedMPH, Max Gust SpeedMPH,PrecipitationIn, CloudCover, Events, WindDirDegrees
2010-10-1,84,76,67,67,64,59,93,72,51,29.96,29.91,29.82,10,8,2,10,3,14,0.06,2,Rain,192
2010-10-2,86,76,66,67,64,62,93,71,48,29.98,29.93,29.88,10,9,6,13,3,33,T,0,Rain,196
2010-10-3,78,71,64,63,62,59,87,74,60,30.01,29.96,29.91,10,7,4,10,3,44,0.00,5,,233
2010-10-4,65,63,60,63,60,54,100,86,72,30.00,29.97,29.93,10,5,2,10,2,15,0.05,8,Rain,212
2010-10-5,67,63,58,57,54,48,93,73,52,30.01,29.99,29.94,10,9,2,14,5,18,0.10,7,Rain,112
2010-10-6,67,62,57,61,56,51,93,76,58,30.09,30.04,29.97,10,8,2,13,5,18,0.22,7,Rain,121
2010-10-7,73,65,57,55,53,49,86,67,47,30.15,30.10,30.07,10,10,10,3,3,3,0.00,4,,101
2010-10-8,80,67,53,57,53,50,93,66,39,30.13,30.08,30.02,10,10,10,9,3,23,0.00,0,,248
2010-10-9,90,73,55,57,53,47,93,59,24,30.10,30.05,29.98,10,10,9,9,1,14,0.00,0,,264
2010-10-10,95,76,57,60,53,44,87,53,19,30.02,29.92,29.84,10,10,8,9,2,15,0.00,0,,269
2010-10-11,80,71,61,62,60,56,90,69,47,29.97,29.90,29.86,10,9,7,9,3,13,0.00,2,,209
2010-10-12,79,72,64,61,60,60,87,71,54,30.04,29.99,29.94,10,7,5,10,2,13,0.00,5,,205
2010-10-13,80,71,62,62,61,59,93,74,54,30.05,30.00,29.94,10,5,2,9,2,14,0.00,4,,197
2010-10-14,75,69,63,61,60,60,93,79,64,30.08,30.05,30.00,10,6,4,10,3,22,0.00,6,,204
2010-10-15,71,67,62,61,60,59,93,81,68,30.09,30.04,29.98,10,8,2,13,2,15,T,7,Rain,202
2010-10-16,68,65,62,61,60,59,93,86,78,30.07,30.04,30.01,10,9,5,8,2,13,T,8,Rain,204
2010-10-17,67,65,62,61,60,57,93,83,73,30.07,30.04,29.99,10,8,2,9,3,12,0.01,8,Rain,201
2010-10-18,67,64,60,61,58,55,97,83,68,30.01,29.98,29.92,10,9,3,8,2,12,0.01,8,Rain,191
2010-10-19,68,65,61,63,60,57,100,88,76,29.94,29.89,29.81,10,9,3,12,2,20,0.32,7,Rain,206
2010-10-20,68,64,60,61,59,57,93,83,73,30.04,29.96,29.89,10,8,2,9,3,28,0.03,7,Rain,143
2010-10-21,68,65,61,61,58,55,93,83,73,30.09,30.05,30.02,10,9,3,8,1,15,0.02,8,Rain,251
2010-10-22,69,64,58,57,55,52,90,74,58,30.06,30.03,30.01,10,10,10,9,3,23,T,6,Rain,203
2010-10-23,69,64,58,59,57,55,93,80,66,30.12,30.07,30.04,10,8,2,9,3,16,0.02,7,Rain,145
2010-10-24,72,64,56,63,58,49,100,72,44,30.13,30.07,30.03,10,8,2,10,2,16,0.14,4,Rain,194
2010-10-25,78,69,59,63,59,34,100,60,20,30.03,29.92,29.83,10,6,2,16,4,24,0.15,6,Rain,163
2010-10-26,72,64,55,56,53,44,93,71,48,29.93,29.89,29.83,10,10,10,10,3,13,0.00,2,,108
2010-10-27,82,67,52,52,29,16,93,52,11,30.05,29.99,29.91,10,10,10,26,10,35,0.00,0,,72
2010-10-28,84,69,54,39,26,18,47,29,10,30.08,30.04,30.00,10,10,10,12,4,16,0.00,0,,99
2010-10-29,80,66,52,58,44,37,84,55,25,30.06,29.99,29.92,10,10,10,9,3,,0.00,0,,159
2010-10-30,70,63,56,57,55,51,100,77,53,30.13,30.02,29.95,10,8,2,12,3,16,0.30,5,Rain,215
2010-10-31,71,61,51,54,53,50,96,75,53,30.18,30.12,30.07,10,10,9,9,2,24,0.00,0,,201